Tracking 20040 objects as of 19-Nov-2019
Live streaming from Space Station
objects crossing your sky now

SL-12 R/B(2)

Track SL-12 R/B(2) now!


NORAD ID: 24897
Int'l Code: 1997-041D
Perigee: 34,350.4 km
Apogee: 37,395.1 km
Inclination: 14.2 °
Period: 1,440.1 minutes
Semi major axis: 42243 km
RCS: 1 m2 (large)
Launch date: August 14, 1997
Source: Commonwealth of Independent States (former USSR) (CIS)
Launch site: TYURATAM MISSILE AND SPACE COMPLEX (TTMTR)

Note: This is a ROCKET BODY
aabbcc
Your satellite tracking list
Your tracking list is empty




NASA's NSSDC Master Catalog

Two Line Element Set (TLE):
1 24897U 97041D   19322.63729720 -.00000205  00000-0  00000+0 0  9991
2 24897  14.1533  17.0204 0360377 241.4953 114.2240  0.99990659 81376
Source of the keplerian elements: AFSPC